Iowa City, IA

12:34 AM CST on January 20, 2017 (GMT -0600)
Iowa City Municipal

Weather History for KIOW - October, 2011

Change the Weather History Date:

Monday, October 10, 2011

  Actual Average Record
Temperature  
Mean Temperature 63 °F 54 °F  
Max Temperature 79 °F 66 °F 87 °F (1962)
Min Temperature 46 °F 43 °F 25 °F (1964)
Degree Days  
Heating Degree Days 2 11  
Month to date heating degree days 40 98  
Since 1 July heating degree days 205 210  
Cooling Degree Days 0 1  
Month to date cooling degree days 10 10  
Year to date cooling degree days 1090 912  
Growing Degree Days 14 (Base 50)    
Moisture  
Dew Point 49 °F    
Average Humidity 59    
Maximum Humidity 86    
Minimum Humidity 32    
Precipitation  
Precipitation T in 0.10 in 2.50 in (1954)
Month to date precipitation T 0.84  
Year to date precipitation 26.57 30.38  
Sea Level Pressure  
Sea Level Pressure 30.08 in    
Wind  
Wind Speed 5 mph (SSE)    
Max Wind Speed 16 mph    
Max Gust Speed 22 mph    
Visibility 10 miles    
Events Rain    
T = Trace of Precipitation, MM = Missing Value Source: NWS Daily Summary

Daily Weather History Graph

Daily Weather History Graph

Search for Another Location

Airport or City:

Trip Planner

Search our weather history database for the weather conditions in past years. The results will help you decide how hot, cold, wet, or windy it might be!

Date:

Astronomy

Oct. 10, 2011 Rise Set
Actual Time 7:12 AM CDT 6:33 PM CDT
Civil Twilight 6:44 AM CDT 7:01 PM CDT
Nautical Twilight 6:12 AM CDT 7:33 PM CDT
Astronomical Twilight 5:40 AM CDT 8:05 PM CDT
Moon 5:37 PM CDT (10/10) 5:53 AM CDT (10/10)
Length of Visible Light 12h 16m
Length of Day
11h 20m
Waxing Gibbous, 98% of the Moon is Illuminated
Oct 10
Waxing Gibbous
Oct 11
Full
Oct 19
Last Quarter
Oct 26
New
Nov 2
First Quarter

Hourly Weather History & Observations

Time (CDT) Temp. Dew Point Humidity Pressure Visibility Wind Dir Wind Speed Gust Speed Precip Events Conditions
12:52 AM 55.0 °F 45.0 °F 69% 30.16 in 10.0 mi Calm Calm - N/A   Clear
1:52 AM 50.0 °F 44.1 °F 80% 30.15 in 10.0 mi Calm Calm - N/A   Clear
2:52 AM 52.0 °F 45.0 °F 77% 30.15 in 10.0 mi Calm Calm - N/A   Clear
3:52 AM 48.9 °F 43.0 °F 80% 30.15 in 10.0 mi Calm Calm - N/A   Clear
4:52 AM 50.0 °F 44.1 °F 80% 30.14 in 10.0 mi Calm Calm - N/A   Clear
5:52 AM 48.0 °F 44.1 °F 86% 30.15 in 10.0 mi Calm Calm - N/A   Clear
6:52 AM 48.0 °F 44.1 °F 86% 30.15 in 10.0 mi Calm Calm - N/A   Clear
7:52 AM 48.9 °F 44.1 °F 83% 30.15 in 10.0 mi Calm Calm - N/A   Clear
8:52 AM 57.0 °F 46.9 °F 69% 30.15 in 10.0 mi SE 4.6 mph - N/A   Clear
9:52 AM 64.0 °F 50.0 °F 60% 30.14 in 10.0 mi SE 3.5 mph - N/A   Clear
10:52 AM 70.0 °F 50.0 °F 49% 30.13 in 10.0 mi SE 6.9 mph - N/A   Clear
11:52 AM 73.0 °F 51.1 °F 46% 30.11 in 10.0 mi South 9.2 mph 17.3 mph N/A   Clear
12:52 PM 77.0 °F 46.0 °F 33% 30.08 in 10.0 mi South 10.4 mph 17.3 mph N/A   Clear
1:52 PM 79.0 °F 46.0 °F 31% 30.05 in 10.0 mi South 16.1 mph 21.9 mph N/A   Clear
2:52 PM 77.0 °F 48.0 °F 36% 30.03 in 10.0 mi South 13.8 mph - N/A   Scattered Clouds
3:52 PM 77.0 °F 51.1 °F 40% 30.02 in 10.0 mi South 6.9 mph - N/A   Mostly Cloudy
4:52 PM 75.9 °F 52.0 °F 43% 30.01 in 10.0 mi SSE 9.2 mph - N/A   Partly Cloudy
5:52 PM 75.0 °F 53.1 °F 46% 29.99 in 10.0 mi South 6.9 mph - N/A   Clear
6:52 PM 70.0 °F 53.1 °F 55% 29.99 in 10.0 mi SE 6.9 mph - N/A   Clear
7:52 PM 66.0 °F 53.1 °F 63% 30.00 in 10.0 mi SE 4.6 mph - N/A   Scattered Clouds
8:52 PM 64.9 °F 54.0 °F 68% 29.99 in 10.0 mi SE 4.6 mph - N/A   Overcast
9:52 PM 66.0 °F 55.0 °F 68% 30.00 in 10.0 mi South 4.6 mph - 0.00 in Rain Light Rain
10:52 PM 64.9 °F 55.9 °F 73% 30.01 in 10.0 mi Calm Calm - 0.00 in   Overcast
11:52 PM 64.0 °F 57.0 °F 78% 30.00 in 10.0 mi Calm Calm - 0.00 in   Overcast